Weather History for K36U - November, 2013

Change the Weather History Date:

Tuesday, November 26, 2013

  Actual Average (KPVU) Record (KPVU)
Temperature  
Mean Temperature 32 °F -  
Max Temperature 46 °F 42 °F 60 °F (1998)
Min Temperature 17 °F 26 °F 12 °F (1992)
Degree Days  
Heating Degree Days 34    
Moisture  
Dew Point 22 °F    
Average Humidity 80    
Maximum Humidity 100    
Minimum Humidity 42    
Precipitation  
Precipitation 0.00 in - - ()
Sea Level Pressure  
Sea Level Pressure 30.39 in    
Wind  
Wind Speed 0 mph (SE)    
Max Wind Speed 6 mph    
Max Gust Speed -    
Visibility 9 miles    
Events      
Averages and records for this station are not official NWS values.
T = Trace of Precipitation, MM = Missing Value Source: NWS Daily Summary

Daily Weather History Graph

Daily Weather History Graph

Search for Another Location

Airport or City:

Trip Planner

Search our weather history database for the weather conditions in past years. The results will help you decide how hot, cold, wet, or windy it might be!

Date:

Astronomy

Nov. 26, 2013 Rise Set
Actual Time 7:24 AM MST 5:01 PM MST
Civil Twilight 6:54 AM MST 5:31 PM MST
Nautical Twilight 6:21 AM MST 6:04 PM MST
Astronomical Twilight 5:48 AM MST 6:37 PM MST
Moon 12:30 AM MST (11/26) 1:11 PM MST (11/26)
Length of Visible Light 10h 36m
Length of Day
9h 36m
Last Quarter, 40% of the Moon is Illuminated
Nov 26
Last Quarter
Dec 2
New
Dec 9
First Quarter
Dec 17
Full
Dec 25
Last Quarter

Hourly Weather History & Observations

Time (MST) Temp. Windchill Dew Point Humidity Pressure Visibility Wind Dir Wind Speed Gust Speed Precip Events Conditions
12:15 AM 21.2 °F - 19.4 °F 93% 30.44 in 10.0 mi Calm Calm - N/A   Clear
12:35 AM 23.0 °F - 21.2 °F 93% 30.44 in 7.0 mi Calm Calm - N/A   Clear
12:55 AM 21.2 °F - 21.2 °F 100% 30.44 in 7.0 mi Calm Calm - N/A   Clear
1:15 AM 19.4 °F - 17.6 °F 93% 30.45 in 7.0 mi Calm Calm - N/A   Clear
1:35 AM 21.2 °F - 19.4 °F 93% 30.45 in 7.0 mi Calm Calm - N/A   Clear
1:55 AM 19.4 °F - 17.6 °F 93% 30.45 in 7.0 mi Calm Calm - N/A   Clear
2:15 AM 19.4 °F - 17.6 °F 93% 30.45 in 7.0 mi Calm Calm - N/A   Clear
2:35 AM 19.4 °F - 17.6 °F 93% 30.45 in 7.0 mi Calm Calm - N/A   Clear
2:55 AM 19.4 °F - 17.6 °F 93% 30.45 in 10.0 mi Calm Calm - N/A   Clear
3:15 AM 19.4 °F - 17.6 °F 93% 30.45 in 7.0 mi Calm Calm - N/A   Clear
3:35 AM 19.4 °F - 17.6 °F 93% 30.45 in 7.0 mi Calm Calm - N/A   Clear
3:55 AM 21.2 °F - 19.4 °F 93% 30.45 in 7.0 mi Calm Calm - N/A   Clear
4:15 AM 19.4 °F - 17.6 °F 93% 30.45 in 10.0 mi Calm Calm - N/A   Clear
4:35 AM 19.4 °F - 17.6 °F 93% 30.45 in 7.0 mi Calm Calm - N/A   Clear
4:55 AM 19.4 °F - 15.8 °F 86% 30.45 in 10.0 mi Calm Calm - N/A   Clear
5:15 AM 21.2 °F - 19.4 °F 93% 30.45 in 7.0 mi Calm Calm - N/A   Clear
5:35 AM 21.2 °F - 19.4 °F 93% 30.45 in 7.0 mi Calm Calm - N/A   Clear
5:55 AM 19.4 °F - 17.6 °F 93% 30.45 in 4.0 mi Calm Calm - N/A   Clear
6:15 AM 19.4 °F - 17.6 °F 93% 30.45 in 5.0 mi Calm Calm - N/A   Clear
6:35 AM 19.4 °F - 17.6 °F 93% 30.46 in 7.0 mi Calm Calm - N/A   Clear
6:55 AM 19.4 °F - 17.6 °F 93% 30.46 in 7.0 mi Calm Calm - N/A   Clear
7:15 AM 17.6 °F - 15.8 °F 93% 30.46 in 10.0 mi Calm Calm - N/A   Clear
7:35 AM 17.6 °F - 15.8 °F 93% 30.46 in 10.0 mi Calm Calm - N/A   Clear
7:55 AM 19.4 °F - 17.6 °F 93% 30.47 in 7.0 mi Calm Calm - N/A   Clear
8:15 AM 19.4 °F - 19.4 °F 100% 30.47 in 7.0 mi Calm Calm - N/A   Clear
8:35 AM 23.0 °F - 21.2 °F 93% 30.47 in 7.0 mi Calm Calm - N/A   Clear
8:55 AM 24.8 °F - 21.2 °F 86% 30.47 in 7.0 mi Calm Calm - N/A   Clear
9:15 AM 26.6 °F - 23.0 °F 86% 30.47 in 7.0 mi Calm Calm - N/A   Clear
9:35 AM 26.6 °F - 23.0 °F 86% 30.47 in 7.0 mi Calm Calm - N/A   Clear
9:55 AM 28.4 °F - 23.0 °F 80% 30.47 in 7.0 mi Calm Calm - N/A   Clear
10:15 AM 28.4 °F - 24.8 °F 86% 30.46 in 10.0 mi Calm Calm - N/A   Clear
10:35 AM 30.2 °F - 24.8 °F 80% 30.45 in 10.0 mi Calm Calm - N/A   Clear
10:55 AM 32.0 °F - 24.8 °F 75% 30.45 in 10.0 mi Calm Calm - N/A   Clear
11:15 AM 32.0 °F - 26.6 °F 80% 30.44 in 10.0 mi Calm Calm - N/A   Clear
11:35 AM 33.8 °F - 24.8 °F 70% 30.43 in 10.0 mi Calm Calm - N/A   Clear
11:55 AM 35.6 °F - 24.8 °F 65% 30.41 in 10.0 mi Calm Calm - N/A   Clear
12:15 PM 37.4 °F - 23.0 °F 56% 30.40 in 10.0 mi Calm Calm - N/A   Clear
12:35 PM 37.4 °F - 23.0 °F 56% 30.39 in 10.0 mi Calm Calm - N/A   Clear
12:55 PM 41.0 °F - 23.0 °F 49% 30.38 in 10.0 mi Calm Calm - N/A   Clear
1:15 PM 41.0 °F - 23.0 °F 49% 30.37 in 10.0 mi Calm Calm - N/A   Clear
1:35 PM 42.8 °F - 21.2 °F 42% 30.35 in 10.0 mi Calm Calm - N/A   Clear
1:55 PM 44.6 °F - 24.8 °F 46% 30.35 in 10.0 mi Calm Calm - N/A   Clear
2:15 PM 44.6 °F - 26.6 °F 49% 30.34 in 10.0 mi Calm Calm - N/A   Clear
2:35 PM 44.6 °F - 26.6 °F 49% 30.33 in 10.0 mi Calm Calm - N/A   Clear
2:55 PM 44.6 °F - 26.6 °F 49% 30.32 in 10.0 mi Calm Calm - N/A   Clear
3:15 PM 46.4 °F - 26.6 °F 46% 30.32 in 10.0 mi Calm Calm - N/A   Clear
3:35 PM 46.4 °F - 26.6 °F 46% 30.32 in 10.0 mi Calm Calm - N/A   Clear
3:55 PM 46.4 °F - 26.6 °F 46% 30.32 in 10.0 mi Calm Calm - N/A   Clear
4:15 PM 44.6 °F 43.1 °F 28.4 °F 53% 30.32 in 10.0 mi South 3.5 mph - N/A   Clear
4:35 PM 41.0 °F 39.0 °F 26.6 °F 57% 30.32 in 10.0 mi South 3.5 mph - N/A   Clear
4:55 PM 33.8 °F 29.6 °F 26.6 °F 75% 30.31 in 10.0 mi SSE 4.6 mph - N/A   Clear
5:15 PM 32.0 °F 26.4 °F 26.6 °F 80% 30.31 in 10.0 mi SE 5.8 mph - N/A   Clear
5:35 PM 30.2 °F 25.4 °F 26.6 °F 86% 30.31 in 10.0 mi ESE 4.6 mph - N/A   Clear
5:55 PM 30.2 °F 25.4 °F 26.6 °F 86% 30.32 in 10.0 mi East 4.6 mph - N/A   Clear
6:15 PM 32.0 °F - 24.8 °F 75% 30.32 in 10.0 mi Calm Calm - N/A   Clear
6:35 PM 28.4 °F - 23.0 °F 80% 30.32 in 10.0 mi Calm Calm - N/A   Clear
6:55 PM 26.6 °F 22.6 °F 23.0 °F 86% 30.32 in 10.0 mi ESE 3.5 mph - N/A   Clear
7:15 PM 28.4 °F - 23.0 °F 80% 30.32 in 10.0 mi Calm Calm - N/A   Clear
7:35 PM 26.6 °F 21.2 °F 23.0 °F 86% 30.33 in 10.0 mi SE 4.6 mph - N/A   Clear
7:55 PM 28.4 °F - 23.0 °F 80% 30.33 in 10.0 mi Calm Calm - N/A   Clear
8:15 PM 28.4 °F - 23.0 °F 80% 30.33 in 10.0 mi Calm Calm - N/A   Clear
8:35 PM 26.6 °F - 23.0 °F 86% 30.33 in 10.0 mi Calm Calm - N/A   Clear
8:55 PM 26.6 °F - 23.0 °F 86% 30.34 in 10.0 mi Calm Calm - N/A   Clear
9:15 PM 26.6 °F - 21.2 °F 80% 30.33 in 10.0 mi Calm Calm - N/A   Clear
9:35 PM 26.6 °F - 23.0 °F 86% 30.33 in 10.0 mi Calm Calm - N/A   Clear
9:55 PM 24.8 °F - 21.2 °F 86% 30.33 in 10.0 mi Calm Calm - N/A   Clear
10:15 PM 24.8 °F - 21.2 °F 86% 30.33 in 10.0 mi Calm Calm - N/A   Clear
10:35 PM 24.8 °F - 21.2 °F 86% 30.34 in 10.0 mi Calm Calm - N/A   Clear
10:55 PM 24.8 °F - 21.2 °F 86% 30.33 in 10.0 mi Calm Calm - N/A   Clear
11:15 PM 23.0 °F - 21.2 °F 93% 30.33 in 10.0 mi Calm Calm - N/A   Clear
11:35 PM 23.0 °F - 21.2 °F 93% 30.33 in 10.0 mi Calm Calm - N/A   Clear
11:55 PM 23.0 °F 18.4 °F 21.2 °F 93% 30.33 in 10.0 mi ESE 3.5 mph - N/A   Clear